Regional Weather Roundup
Issued by NWS Sioux Falls, SD

Home | Current Version | Previous Version | Graphics & Text | Print | Product List | Glossary Off
Versions: 1 2 3 4 5 6 7 8 9 10 11 12 13 14 15 16 17 18 19 20 21 22 23 24 25 26 27 28 29 30 31 32 33 34 35 36 37 38 39 40 41 42 43 44 45 46 47 48 49 50

000
ASUS43 KFSD 250410
RWRFSD

WEATHER ROUNDUP FOR SE SOUTH DAKOTA/SW MINNESOTA/NW IOWA
NATIONAL WEATHER SERVICE SIOUX FALLS SD
1100 PM CDT MON APR 24 2017

NOTE: "FAIR" INDICATES FEW OR NO CLOUDS BELOW 12,000 FEET WITH NO
SIGNIFICANT WEATHER AND OR OBSTRUCTIONS TO VISIBILITY.


SDZ038>040-050-052>070-250500-
SOUTHEAST SOUTH DAKOTA

CITY           SKY/WX    TMP DP  RH WIND       PRES   REMARKS
BROOKINGS      PTCLDY    43  38  82 N14       29.57R
CHAMBERLAIN    CLOUDY    45  40  80 NW12G18   29.63S
HURON          CLOUDY    42  36  79 N13       29.63R
MADISON        FAIR      41  41 100 NW16G22   29.58R
MITCHELL       PTCLDY    46  38  73 N14       29.62R
SIOUX FALLS    CLOUDY    49  41  74 NW15      29.56R
WINNER         FAIR      41  37  86 N5        29.64R
YANKTON        CLOUDY    50  39  66 NW12      29.57R
$$

MNZ071-072-080-081-089-090-097-098-250500-
SOUTHWEST MINNESOTA

CITY           SKY/WX    TMP DP  RH WIND       PRES   REMARKS
FAIRMONT       CLOUDY    61  36  39 S13       29.52F
JACKSON        CLOUDY    61  41  48 S14       29.52F
LUVERNE        CLEAR     50  41  71 N7        29.54S
MARSHALL       CLOUDY    50  45  83 NW15G21   29.54R
MONTEVIDEO     CLOUDY    48  43  81 N14G20    29.55R
PIPESTONE      CLEAR     52  39  62 NW8       29.54S
REDWOOD FALLS  CLOUDY    59  45  59 SE9       29.50S
TRACY          CLOUDY    58  47  68 NW15      29.53R
WINDOM         CLOUDY    57  46  67 W5        29.51S
WORTHINGTON    CLOUDY    55  45  68 W10       29.53R
$$

IAZ001>003-012>014-020>022-031-032-NEZ013-014-SDZ071-250500-
NORTHWEST IOWA

CITY           SKY/WX    TMP DP  RH WIND       PRES   REMARKS
CHEROKEE       CLOUDY    60  44  54 W7        29.53R
DENISON        CLOUDY    64  43  45 S13G18    29.54F
ESTHERVILLE    CLOUDY    61  41  47 S13       29.52S
LE MARS        PTCLDY    54  45  71 NW6       29.56R
ORANGE CITY    PTCLDY    54  46  76 NW10      29.54S
SHELDON        CLOUDY    55  45  67 NW10      29.52R
SIOUX CITY     CLEAR     54  43  66 NW13      29.54R
SPENCER        CLOUDY    64  41  42 S14       29.52S
STORM LAKE     CLOUDY    63  41  45 S14       29.53S
$$

ABBREVIATIONS USED IN REMARKS
   TC - TEMPERATURE IN CELSIUS
  WCI - WIND CHILL INDEX
   HX - HEAT INDEX
  VSB - VISIBILITY





USA.gov is the U.S. government's official web portal to all federal, state and local government web resources and services.